Weather History for Rolla, MO

Change the Weather History Date:

Wednesday, October 3, 2012

  Actual Average Record
Temperature  
Mean Temperature 64 °F 61 °F  
Max Temperature 71 °F 72 °F 92 °F (1897)
Min Temperature 56 °F 50 °F 34 °F (1974)
Degree Days  
Heating Degree Days 1 6  
Month to date heating degree days 18 17  
Since 1 July heating degree days 100 81  
Cooling Degree Days 0 2  
Month to date cooling degree days 0 6  
Year to date cooling degree days 1666 1224  
Growing Degree Days 13 (Base 50)    
Moisture  
Dew Point 53 °F    
Average Humidity 70    
Maximum Humidity 86    
Minimum Humidity 53    
Precipitation  
Precipitation 0.00 in 0.12 in 1.70 in (1902)
Month to date precipitation 0.00 0.37  
Year to date precipitation 26.56 33.96  
Sea Level Pressure  
Sea Level Pressure 29.97 in    
Wind  
Wind Speed 6 mph (SSW)    
Max Wind Speed 13 mph    
Max Gust Speed -    
Visibility 8 miles    
Events      
T = Trace of Precipitation, MM = Missing Value Source: NWS Daily Summary

Daily Weather History Graph

Daily Weather History Graph

Search for Another Location

Airport:

Trip Planner

Search our weather history database for the weather conditions in past years. The results will help you decide how hot, cold, wet, or windy it might be!

Date:

Astronomy

Oct. 03, 2012 Rise Set
Actual Time 7:05 AM CDT 6:46 PM CDT
Civil Twilight 6:38 AM CDT 7:12 PM CDT
Nautical Twilight 6:08 AM CDT 7:42 PM CDT
Astronomical Twilight 5:37 AM CDT 8:13 PM CDT
Moon 8:42 PM CDT (10/3) 10:24 AM CDT (10/3)
Length of Visible Light 12h 33m
Length of Day
11h 41m
Waning Gibbous, 88% of the Moon is Illuminated
Oct 3
Waning Gibbous
Oct 8
Last Quarter
Oct 15
New
Oct 21
First Quarter
Oct 29
Full

Hourly Weather History & Observations

Time (CDT) Temp. Dew Point Humidity Pressure Visibility Wind Dir Wind Speed Gust Speed Precip Events Conditions
12:53 AM 57.0 °F 48.9 °F 74% 29.88 in 10.0 mi SW 4.6 mph - N/A   Clear
1:53 AM 57.9 °F 48.0 °F 70% 29.90 in 10.0 mi SSW 5.8 mph - N/A   Partly Cloudy
2:53 AM 57.0 °F 48.9 °F 74% 29.90 in 5.0 mi SSW 6.9 mph - N/A   Haze
3:53 AM 57.0 °F 50.0 °F 77% 29.90 in 4.0 mi SSW 6.9 mph - N/A   Haze
4:53 AM 55.9 °F 51.1 °F 84% 29.92 in 6.0 mi SSW 5.8 mph - N/A   Haze
5:53 AM 57.0 °F 51.1 °F 81% 29.94 in 7.0 mi SSW 5.8 mph - N/A   Overcast
6:53 AM 55.9 °F 52.0 °F 87% 29.95 in 5.0 mi SW 6.9 mph - N/A   Overcast
7:53 AM 57.0 °F 52.0 °F 83% 29.96 in 4.0 mi WSW 3.5 mph - N/A   Haze
8:53 AM 61.0 °F 54.0 °F 78% 29.97 in 4.0 mi Calm Calm - N/A   Haze
9:53 AM 63.0 °F 54.0 °F 72% 29.99 in 4.0 mi North - - N/A   Haze
10:53 AM 64.9 °F 55.0 °F 70% 30.00 in 4.0 mi North - - N/A   Haze
11:53 AM 68.0 °F 55.0 °F 63% 29.99 in 7.0 mi SW 5.8 mph - N/A   Mostly Cloudy
12:53 PM 68.0 °F 54.0 °F 61% 29.98 in 10.0 mi SW 6.9 mph - N/A   Mostly Cloudy
1:53 PM 71.1 °F 54.0 °F 55% 29.96 in 10.0 mi SW 9.2 mph - N/A   Scattered Clouds
2:53 PM 68.0 °F 54.0 °F 61% 29.96 in 10.0 mi WSW 4.6 mph - N/A   Overcast
3:53 PM 68.0 °F 55.0 °F 63% 29.96 in 10.0 mi SSW 5.8 mph - N/A   Overcast
4:53 PM 68.0 °F 55.9 °F 65% 29.96 in 10.0 mi SSE 4.6 mph - N/A   Partly Cloudy
5:53 PM 66.0 °F 55.9 °F 70% 29.97 in 10.0 mi South 4.6 mph - N/A   Mostly Cloudy
6:53 PM 66.0 °F 55.0 °F 68% 29.97 in 10.0 mi SSE 5.8 mph - N/A   Partly Cloudy
7:53 PM 62.6 °F 53.6 °F 72% 30.00 in 10.0 mi SSE 6.9 mph - N/A   Clear
8:53 PM 60.1 °F 54.0 °F 80% 30.01 in 10.0 mi South 6.9 mph - N/A   Clear
9:53 PM 59.0 °F 54.0 °F 83% 30.03 in 10.0 mi South 6.9 mph - N/A   Clear
10:53 PM 61.0 °F 54.0 °F 78% 30.03 in 10.0 mi South 8.1 mph - N/A   Clear
11:53 PM 62.1 °F 54.0 °F 75% 30.03 in 10.0 mi South 12.7 mph - N/A   Partly Cloudy